User: anonymous   Login
Location: L'Union
(43.6635°N, 1.4699°E)
Time: 06:31:32
(UTC+02:00)
Language:

NO-84 - Orbit

View from above orbital plane
View from above orbital plane
View from above satellite
View from above satellite

Ground track
Ground track

The orbit data is extracted from the following two-line orbital elements,

1 40654U 15025D   21286.36583832  .00177263  21229-4  74745-3 0  1874
2 40654  54.9718 200.8232 0053628  26.7217 333.7079 15.82878076 25631
Epoch (UTC): 13 October 2021 08:46:48
Eccentricity: 0.0053628
inclination: 54.9718°
perigee height: 286 km
apogee height: 358 km
right ascension of ascending node: 200.8232°
argument of perigee: 26.7217°
revolutions per day: 15.82878076
mean anomaly at epoch: 333.7079°
orbit number at epoch: 2563

The dashed part of the orbit path shows where the satellite is in the earth's shadow,  

DLR